Regional Weather Roundup
Issued by NWS

Home | Current Version | Previous Version | Text Only | Print | Product List | Glossary On
Versions: 1 2 3 4 5 6 7 8 9 10 11 12 13 14 15 16 17 18 19 20 21 22 23 24 25 26 27 28 29 30 31 32 33 34 35 36 37 38 39 40 41 42 43 44 45 46 47 48 49 50
813
ASUS43 KMKX 141011
RWRWI

WISCONSIN REGIONAL WEATHER ROUNDUP
NATIONAL WEATHER SERVICE MILWAUKEE/SULLIVAN WI
400 AM CST SUN FEB 14 2016

NOTE: "FAIR" INDICATES FEW OR NO CLOUDS BELOW 12,000 FEET WITH NO
SIGNIFICANT WEATHER AND/OR OBSTRUCTIONS TO VISIBILITY.

WIZ001-002-006>008-014>016-023>028-141100-
NORTHWEST WISCONSIN

CITY           SKY/WX    TMP DP  RH WIND       PRES   REMARKS
SUPERIOR ARPT  CLOUDY   -11 -16  80 CALM      30.26F
ASHLAND        CLOUDY   -18 -23  77 CALM      30.28F
HAYWARD        CLOUDY   -14 -19  79 CALM      30.22F
SIREN          CLOUDY     5 -10  51 SE9       30.21F WCI  -9
CUMBERLAND     CLOUDY     0 -13  55 SE8       30.20F WCI -15
RICE LAKE      CLOUDY     0 -11  58 SE10      30.24F WCI -16
CHETEK         CLOUDY    -3 -12  65 SE5       30.24F WCI -14
LADYSMITH      PTCLDY    -8 -15  68 E5        30.27F WCI -19
EAU CLAIRE     CLOUDY    -1 -11  62 E6        30.25F WCI -13
MENOMONIE      CLOUDY     4  -7  61 E6        30.25F WCI  -7
NEW RICHMOND   CLOUDY     6  -6  58 SE7       30.20F WCI  -6
OSCEOLA        CLOUDY     7  -6  56 SE9       30.22F WCI  -6
$$

WIZ003>005-009-010-017-018-141100-
NORTH CENTRAL WISCONSIN

CITY           SKY/WX    TMP DP  RH WIND       PRES   REMARKS
MANITOWISH WTR CLOUDY   -24 -30  73 CALM      30.23F
ARBOR VITAE    CLOUDY   -14 -20  75 CALM      30.24S
WOODRUFF       CLOUDY   -14 -20  75 CALM      30.24S
RHINELANDER    CLOUDY   -16 -21  78 E3        30.25F
EAGLE RIVER    CLOUDY   -19 -26  67 CALM      30.25S
LAND O LAKES   CLOUDY   -25 -32  71 CALM      30.25F
PHILLIPS       CLOUDY   -21 -27  74 CALM      30.23F
TOMAHAWK       CLOUDY   -22 -28  73 CALM      30.26F
MEDFORD        CLOUDY   -12 -17  75 SE3       30.23F
MERRILL        CLOUDY   -20 -26  75 CALM      30.29F
$$

WIZ029-030-035-036-043>047-141100-
CENTRAL WISCONSIN

CITY           SKY/WX    TMP DP  RH WIND       PRES   REMARKS
WAUSAU         CLOUDY   -11 -16  78 CALM      30.29F
MOSINEE        CLOUDY    -8 -15  71 CALM      30.30S
MARSHFIELD     CLOUDY    -6 -15  65 SE3       30.27F
STEVENS POINT  CLOUDY   -16 -22  72 CALM      30.32F
WAUPACA        CLOUDY   -11 -17  75 CALM      30.36F
WAUTOMA        CLOUDY   -16 -22  74 CALM      30.36F
WISC RAPIDS    CLOUDY    -9 -16  71 SE3       30.33F
CAMP DOUGLAS   CLOUDY   -12 -15  86 SE5       30.31F WCI -24
$$

WIZ011>013-019>022-031-037>040-048>050-141100-
NORTHEAST WISCONSIN

CITY           SKY/WX    TMP DP  RH WIND       PRES   REMARKS
ANTIGO         CLOUDY   -16 -22  76 CALM      30.27F
SHAWANO        CLOUDY    -6 -11  79 CALM      30.36F
OCONTO         CLOUDY   -12 -16  82 CALM      30.39F
STURGEON BAY   CLOUDY    -2  -9  71 CALM      30.39F
GREEN BAY      CLOUDY    -9 -14  78 CALM      30.38F
MANITOWOC      CLOUDY    -4 -10  75 CALM      30.39F
APPLETON       CLOUDY    -2  -8  78 CALM      30.33F
CLINTONVILLE   CLOUDY    -9 -17  70 CALM      30.35F
OSHKOSH        CLOUDY    -5 -11  75 S3        30.35F
$$

WIZ032>034-041-042-053>061-141100-
SOUTHWEST WISCONSIN

CITY           SKY/WX    TMP DP  RH WIND       PRES   REMARKS
LA CROSSE      CLOUDY     8  -5  55 E9        30.28F WCI  -5
SPARTA         CLOUDY     1  -5  73 E5        30.30F WCI  -8
VIROQUA        CLOUDY     7  -4  61 SE12      30.23F WCI  -9
BOSCOBEL       CLOUDY     8  -2  63 NE3       30.32F
PRAIRIE DU CHI CLOUDY    12   1  62 E9        30.29F WCI   0
PLATTEVILLE    PTCLDY    13   3  64 SE10      30.28F WCI   0
$$

WIZ056-057-062-063-064-067-068-141100-
SOUTH CENTRAL WISCONSIN

CITY           SKY/WX    TMP DP  RH WIND       PRES   REMARKS
REEDSBURG      CLOUDY    -3  -7  80 CALM      30.32F
BARABOO/DELLS  CLOUDY    -4 -11  71 CALM      30.32F
LONE ROCK      CLOUDY     7  -2  66 E9        30.33F WCI  -7
MINERAL POINT  CLOUDY    12   1  62 SE10      30.26F WCI  -1
MADISON        CLOUDY     6  -5  60 SE6       30.35F WCI  -4
MIDDLETON      CLOUDY     9  -2  61 SE6       30.34F WCI   0
WATERTOWN      PTCLDY     0  -6  76 CALM      30.36F
MONROE         CLOUDY    12   3  67 SE8       30.31F WCI   1
JANESVILLE     CLOUDY    12   1  62 SE6       30.36S WCI   3
$$

WIZ051-052-058>065-066-070>072-141100-
SOUTHEAST WISCONSIN

CITY           SKY/WX    TMP DP  RH WIND       PRES   REMARKS
MILWAUKEE      CLOUDY     4  -4  69 CALM      30.39F
WAUKESHA       CLOUDY    -2  -6  84 CALM      30.37F
MILWAUKEE/TIMM CLOUDY     1  -6  71 CALM      30.39F
RACINE         CLEAR      2  -6  69 VRB3      30.40F
BURLINGTON     CLOUDY    -2  -6  83 CALM      30.38F
KENOSHA        CLOUDY     2  -3  80 CALM      30.38F
FOND DU LAC    CLOUDY    -4 -11  72 CALM      30.36F
SHEBOYGAN      CLOUDY    -4 -10  75 CALM      30.37F
WEST BEND      CLOUDY    -6  -9  84 CALM      30.37F
JUNEAU         CLOUDY    -1  -8  72 E6        30.36F WCI -13
$$

LSZ147-162-141100-
LAKE SUPERIOR

STATION/POSITION TIME  TEMP    WIND        PRES    WAVE
                       AIR SEA DIR/SP/G            HT/PER
                 (UTC) (F)     (DEG/KT/KT) (MB)    (FT/S)
DEVILS ISLAND    1000    5     180/  6/  7 1027.5F
SAXON HARBOR     0840  -17                 1026.8F
$$

LMZ867-665-643>646-141100-
LAKE MICHIGAN

STATION/POSITION TIME  TEMP    WIND        PRES    WAVE
                       AIR SEA DIR/SP/G            HT/PER
                 (UTC) (F)     (DEG/KT/KT) (MB)    (FT/S)
CHAMBERS ISLAND  0900   -2     170/  3/  5 1029.1F
SISTER BAY       0905    0        CALM       N/A
ALGOMA LAKESHORE 0841             CALM       N/A
KEWAUNEE LAKESHO 0900   -2     300/  6/  7 1029.1F
SHEBOYGAN LAKESH 1000    8     260/  3/  4 1030.6F
PORT WASHINGTON  0900    4     290/  3/  3 1030.8
MILWAUKEE LAKESH 0910   11     300/  3/  4   N/A
KENOSHA   LAKESH 1000   10     260/  5/  6 1028.8F
$$

TC  - TEMPERATURE IN CELSIUS
VSB - VISIBILITY IN STATUTE MILES
WCI - WIND CHILL INDEX
HX  - HEAT INDEX





USA.gov is the U.S. government's official web portal to all federal, state and local government web resources and services.